�N����,����,����,����,����,�C��,���x,�~����,�S�V����,�ő�u�ԕ���,,,,,
,,,,,,,,,����,����,����,�N��,,
yyyy/mm/dd,hh:mm:ss,(16),16����,m/s,��,%,mm,KW/�u,(16),16����,m/s,Time,,
2019/6/1,1:00:00,3,���k��,1.6,10,88.3,0,0,2,�k��,4.4,8,,
2019/6/1,2:00:00,9,��쐼,3.7,12,89.4,0,0,9,��쐼,6.1,50,,
2019/6/1,3:00:00,10,�쐼,3.6,13.6,86.5,0,0,9,��쐼,6.7,33,,
2019/6/1,4:00:00,1,�k�k��,0.7,9.7,83,0,0,10,�쐼,4.6,1,,
2019/6/1,5:00:00,12,��,2.1,11.3,88,0.5,0.08,13,���k��,3.7,47,,
2019/6/1,6:00:00,11,���쐼,1.2,15.3,67.3,0,0.27,14,�k��,3.4,12,,
2019/6/1,7:00:00,9,��쐼,2.7,18.1,55.8,0,0.47,10,�쐼,5.7,40,,
2019/6/1,8:00:00,8,��,3.4,16.3,57.1,0,0.66,9,��쐼,7.1,6,,
2019/6/1,9:00:00,8,��,4.4,16.8,55.5,0,0.83,8,��,8.8,40,,
2019/6/1,10:00:00,8,��,3.4,20.6,50.3,0,0.94,8,��,8.5,4,,
2019/6/1,11:00:00,11,���쐼,4.9,21.5,39.8,0,1.04,11,���쐼,10.1,44,,
2019/6/1,12:00:00,10,�쐼,5.1,22.2,39.3,0,1.15,11,���쐼,10.5,12,,
2019/6/1,13:00:00,8,��,5,21.2,43.5,0,0.96,9,��쐼,9.5,5,,
2019/6/1,14:00:00,9,��쐼,3.5,19.7,40.6,0,0.93,10,�쐼,8.9,36,,
2019/6/1,15:00:00,9,��쐼,2.1,18.3,50,0,0.36,9,��쐼,6,33,,
2019/6/1,16:00:00,12,��,4.7,19.8,43.5,0,0.47,11,���쐼,10.5,38,,
2019/6/1,17:00:00,11,���쐼,5.5,19.4,39.4,0,0.4,11,���쐼,9.5,56,,
2019/6/1,18:00:00,10,�쐼,2.9,18.2,46.7,0,0.13,12,��,7.3,2,,
2019/6/1,19:00:00,9,��쐼,3.1,13.9,54.3,0,0.06,10,�쐼,5.2,33,,
2019/6/1,20:00:00,11,���쐼,3.2,12.6,71.3,0,0,10,�쐼,4.7,54,,
2019/6/1,21:00:00,10,�쐼,0.6,7.2,76.3,0,0,10,�쐼,4.5,3,,
2019/6/1,22:00:00,12,��,1.4,6,81.3,0,0,13,���k��,2,49,,
2019/6/1,23:00:00,15,�k�k��,0.5,6.8,88,0,0,12,��,2.5,6,,
2019/6/1,0:00:00,13,���k��,0.9,6.7,91.1,0,0,13,���k��,2.9,30,,
2019/6/2,1:00:00,12,��,1.2,7.6,91.7,0,0,13,���k��,2.5,24,,
2019/6/2,2:00:00,12,��,2,7.2,92.6,0,0,11,���쐼,4.1,26,,
2019/6/2,3:00:00,11,���쐼,1.8,7.1,92.4,0,0,12,��,2.4,48,,
2019/6/2,4:00:00,10,�쐼,2,10.9,93.8,0,0,11,���쐼,3.4,54,,
2019/6/2,5:00:00,11,���쐼,2.3,13.2,87.4,0,0.05,10,�쐼,4.9,16,,
2019/6/2,6:00:00,9,��쐼,1.9,15.9,60.4,0,0.28,9,��쐼,4.5,58,,
2019/6/2,7:00:00,11,���쐼,4.4,17.9,59,0,0.37,11,���쐼,6.8,49,,
2019/6/2,8:00:00,15,�k�k��,1.7,19.7,49.1,0,0.65,10,�쐼,5.2,1,,
2019/6/2,9:00:00,6,�쓌,3.7,20.3,52,0,0.82,5,���쓌,5.3,50,,
2019/6/2,10:00:00,6,�쓌,1.7,21.3,45.9,0,0.91,5,���쓌,5.9,24,,
2019/6/2,11:00:00,9,��쐼,3.2,21.7,41.4,0,1.08,11,���쐼,9.3,27,,
2019/6/2,12:00:00,8,��,5.1,21.1,45.5,0,1.07,9,��쐼,8.3,46,,
2019/6/2,13:00:00,7,��쓌,4.1,20.4,45.4,0,1.04,8,��,8.5,4,,
2019/6/2,14:00:00,7,��쓌,2.9,20.1,48.3,0,0.9,7,��쓌,6.4,27,,
2019/6/2,15:00:00,7,��쓌,1.9,21.9,54.9,0,0.59,8,��,5.5,6,,
2019/6/2,16:00:00,6,�쓌,1.7,21.2,48.1,0,0.6,7,��쓌,4.2,10,,
2019/6/2,17:00:00,2,�k��,2.1,18.8,52.3,0,0.32,8,��,5.5,29,,
2019/6/2,18:00:00,1,�k�k��,0.9,17.5,55.5,0,0.21,2,�k��,2.2,0,,
2019/6/2,19:00:00,16,�É�,0,13.8,67,0,0.05,8,��,1.4,35,,
2019/6/2,20:00:00,14,�k��,1.1,11.4,74.8,0,0,14,�k��,2.5,54,,
2019/6/2,21:00:00,14,�k��,2.1,12.1,84.8,0,0,14,�k��,2.9,57,,
2019/6/2,22:00:00,12,��,2.4,10.4,86,0,0,14,�k��,3,0,,
2019/6/2,23:00:00,13,���k��,1.9,11.7,88.3,0,0,14,�k��,3,56,,
2019/6/2,0:00:00,15,�k�k��,0.8,9.3,84.3,0,0,14,�k��,3.3,30,,
2019/6/3,1:00:00,13,���k��,1.4,6.6,83.2,0,0,6,�쓌,2.5,5,,
2019/6/3,2:00:00,12,��,1.1,6.2,89.7,0,0,14,�k��,2.6,30,,
2019/6/3,3:00:00,13,���k��,0.7,5.9,90.7,0,0,11,���쐼,1.9,22,,
2019/6/3,4:00:00,13,���k��,1.7,5.7,92.3,0,0,13,���k��,2.7,50,,
2019/6/3,5:00:00,12,��,1.1,8.4,96.2,0,0.08,12,��,3,37,,
2019/6/3,6:00:00,14,�k��,0.8,12.9,78.9,0,0.25,12,��,2.3,2,,
2019/6/3,7:00:00,3,���k��,0.9,16.5,55.9,0,0.45,16,�k,1.9,28,,
2019/6/3,8:00:00,4,��,2.1,18.2,49.5,0,0.64,4,��,3.1,55,,
2019/6/3,9:00:00,5,���쓌,3.1,17,54.3,0,0.8,5,���쓌,4.4,49,,
2019/6/3,10:00:00,5,���쓌,3.6,16.7,56.2,0,0.95,5,���쓌,4.8,53,,
2019/6/3,11:00:00,5,���쓌,3.3,17,62.8,0,1.05,4,��,5,54,,
2019/6/3,12:00:00,6,�쓌,3,14.9,61.7,0,1.08,6,�쓌,5.4,10,,
2019/6/3,13:00:00,7,��쓌,2.7,15.7,64.7,0,1.03,7,��쓌,6.2,48,,
2019/6/3,14:00:00,6,�쓌,2.5,14.9,72,0,0.9,6,�쓌,5.2,13,,
2019/6/3,15:00:00,8,��,4.5,15.4,70.8,0,0.77,8,��,9,52,,
2019/6/3,16:00:00,8,��,4.6,15.4,78.8,0,0.63,9,��쐼,8.9,54,,
2019/6/3,17:00:00,8,��,3.6,12.1,75.8,0,0.43,8,��,8.1,9,,
2019/6/3,18:00:00,7,��쓌,2.5,10.4,84.6,0,0.18,8,��,7.5,31,,
2019/6/3,19:00:00,6,�쓌,0.9,9.9,90.6,0,0.03,8,��,4,0,,
2019/6/3,20:00:00,4,��,0.8,9.5,92.7,0,0,7,��쓌,3.7,6,,
2019/6/3,21:00:00,3,���k��,1,10.7,94.9,0,0,3,���k��,1.7,49,,
2019/6/3,22:00:00,1,�k�k��,1.8,11.3,96.2,0,0,1,�k�k��,3.5,37,,
2019/6/3,23:00:00,15,�k�k��,0.6,10.2,96.3,0,0,1,�k�k��,3.4,12,,
2019/6/3,0:00:00,14,�k��,2,9.1,95.4,0,0,15,�k�k��,2.8,56,,
2019/6/4,1:00:00,12,��,0.8,7.7,94.2,0,0,13,���k��,2.5,54,,
2019/6/4,2:00:00,10,�쐼,1.3,6.1,94.4,0,0,16,�k,2.4,17,,
2019/6/4,3:00:00,12,��,1.5,4.4,93.9,0,0,13,���k��,2.7,34,,
2019/6/4,4:00:00,14,�k��,0.7,4.5,94.2,0,0,13,���k��,2.3,3,,
2019/6/4,5:00:00,12,��,0.8,7.7,96.6,0,0.08,12,��,2.5,33,,
2019/6/4,6:00:00,1,�k�k��,0.4,11.2,96.7,0,0.24,10,�쐼,6.9,57,,
2019/6/4,7:00:00,13,���k��,81.8,0,0.32,,,,,,,,
2019/6/4,8:00:00,5,���쓌,0.9,16,65.2,0,0.48,5,���쓌,1.9,49,,
2019/6/4,9:00:00,8,��,1.7,14.1,70.7,0,0.34,7,��쓌,3,57,,
2019/6/4,10:00:00,8,��,1.5,17,65.7,0,0.49,8,��,2.5,53,,
2019/6/4,11:00:00,9,��쐼,1.4,19.9,65.7,0,0.61,7,��쓌,3.3,34,,
2019/6/4,12:00:00,7,��쓌,3.4,17.5,53.2,0,0.82,7,��쓌,5.7,53,,
2019/6/4,13:00:00,11,���쐼,4.9,23.6,69.4,0,0.32,11,���쐼,9.1,48,,
2019/6/4,14:00:00,11,���쐼,5.2,23.3,53.7,0,0.72,11,���쐼,8.3,5,,
2019/6/4,15:00:00,11,���쐼,3.8,22.1,56.3,0,0.33,11,���쐼,7.9,36,,
2019/6/4,16:00:00,9,��쐼,2.3,21,59.9,0,0.19,10,�쐼,8.1,4,,
2019/6/4,17:00:00,11,���쐼,4.7,20.6,62.6,0,0.08,10,�쐼,7.8,47,,
2019/6/4,18:00:00,12,��,2,18.9,67,0,0.01,11,���쐼,6.6,2,,
2019/6/4,19:00:00,3,���k��,1.4,17.7,75.7,0,0.02,12,��,2.3,0,,
2019/6/4,20:00:00,5,���쓌,2.1,15.7,78.5,0,0,5,���쓌,3.5,55,,
2019/6/4,21:00:00,1,�k�k��,0.8,14.4,85,0,0,4,��,3.3,1,,
2019/6/4,22:00:00,1,�k�k��,1.7,15,89.4,0,0,1,�k�k��,3.1,48,,
2019/6/4,23:00:00,2,�k��,2.3,15.3,88.1,0,0,2,�k��,3.8,19,,
2019/6/4,0:00:00,5,���쓌,0.4,14.5,89.2,0,0,2,�k��,2.5,11,,
2019/6/5,1:00:00,16,�É�,0,13.7,90.3,0,0,1,�k�k��,1,8,,
2019/6/5,2:00:00,5,���쓌,1.7,13.6,91.3,0,0,6,�쓌,2.4,39,,
2019/6/5,3:00:00,7,��쓌,0.7,13,90.2,0,0,5,���쓌,2.4,2,,
2019/6/5,4:00:00,9,��쐼,1.4,12.9,91.9,0,0,9,��쐼,2.5,46,,
2019/6/5,5:00:00,13.1,���k��,92.9,0,0.02,,,,,,,,
2019/6/5,6:00:00,6,�쓌,1.2,13.6,92.7,0,0.05,7,��쓌,2,58,,
2019/6/5,7:00:00,7,��쓌,1.5,13.3,88,0,0.09,6,�쓌,2.8,50,,
2019/6/5,8:00:00,6,�쓌,2.2,13.3,83.6,0,0.18,8,��,3.2,36,,
2019/6/5,9:00:00,5,���쓌,3,12.7,82.5,0,0.29,6,�쓌,4.7,45,,
2019/6/5,10:00:00,5,���쓌,2.4,12.6,82.5,0,0.29,5,���쓌,5.1,4,,
2019/6/5,11:00:00,3,���k��,2.5,12,86,0,0.16,3,���k��,4.8,58,,
2019/6/5,12:00:00,4,��,2.7,11.7,89.9,0,0.16,5,���쓌,6.2,35,,
2019/6/5,13:00:00,4,��,1.4,11.6,90.8,0,0.1,4,��,5.2,18,,
2019/6/5,14:00:00,11,���쐼,0.5,11.2,90,2,0.06,4,��,3.7,13,,
2019/6/5,15:00:00,15,�k�k��,0.3,11.5,92.7,2.5,0.04,15,�k�k��,3.7,11,,
2019/6/5,16:00:00,13,���k��,1.4,11.5,93.6,4,0.04,13,���k��,2.3,56,,
2019/6/5,17:00:00,7,��쓌,0.8,11.7,94.2,4.5,0.03,14,�k��,2.6,41,,
2019/6/5,18:00:00,2,�k��,0.3,11.7,94.8,0,0.03,11,���쐼,2.2,21,,
2019/6/5,19:00:00,1,�k�k��,0.8,11.6,94.9,0,0.01,3,���k��,2.4,45,,
2019/6/5,20:00:00,3,���k��,0.9,11.1,94.3,0.5,0,3,���k��,2.5,45,,
2019/6/5,21:00:00,2,�k��,0.9,11.2,95,0,0,4,��,1.6,26,,
2019/6/5,22:00:00,4,��,1.3,11.1,95.4,0,0,4,��,2,49,,
2019/6/5,23:00:00,5,���쓌,1.2,10.7,95.2,0,0,4,��,2.9,6,,
2019/6/5,0:00:00,7,��쓌,1.2,10.3,95.3,0,0,4,��,2.9,12,,
2019/6/6,1:00:00,1,�k�k��,0.7,10.5,95.7,0,0,1,�k�k��,2,43,,
2019/6/6,2:00:00,14,�k��,0.5,10.7,96.1,0,0,16,�k,1.4,47,,
2019/6/6,3:00:00,14,�k��,1.7,10.8,96.1,0,0,13,���k��,3.3,47,,
2019/6/6,4:00:00,16,�É�,0.2,10.9,96.1,0,0,2,�k��,3,19,,
2019/6/6,5:00:00,6,�쓌,0.3,11.4,96.6,0,0.03,7,��쓌,2.4,11,,
2019/6/6,6:00:00,16,�k,0.9,13.6,92.1,0,0.27,14,�k��,2.2,59,,
2019/6/6,7:00:00,16,�k,1.5,14.9,70.8,0,0.37,16,�k,3.6,36,,
2019/6/6,8:00:00,5,���쓌,1.9,14.3,73.3,0,0.43,5,���쓌,3.5,36,,
2019/6/6,9:00:00,5,���쓌,2.6,13.3,83.2,0,0.24,5,���쓌,4.1,27,,
2019/6/6,10:00:00,5,���쓌,3.2,13.6,80.7,0,0.47,5,���쓌,5.2,38,,
2019/6/6,11:00:00,7,��쓌,2.5,14.1,73.8,0,0.64,5,���쓌,4.2,57,,
2019/6/6,12:00:00,8,��,3,12.7,80.6,0,0.48,8,��,6.8,10,,
2019/6/6,13:00:00,7,��쓌,2.9,13.6,78.2,0,0.62,8,��,6.1,41,,
2019/6/6,14:00:00,8,��,3,12.8,75.5,0,0.82,7,��쓌,5.9,16,,
2019/6/6,15:00:00,7,��쓌,2.5,11.6,75.4,0,0.62,6,�쓌,4.9,18,,
2019/6/6,16:00:00,5,���쓌,2.6,10.6,84.2,0,0.3,6,�쓌,5,25,,
2019/6/6,17:00:00,6,�쓌,2.1,9.5,89,0,0.11,6,�쓌,3.5,56,,
2019/6/6,18:00:00,8,��,1.4,9.2,92,0,0.04,6,�쓌,3.1,13,,
2019/6/6,19:00:00,6,�쓌,1.8,9.1,93.6,0,0.02,6,�쓌,3.5,21,,
2019/6/6,20:00:00,6,�쓌,2.1,8.9,94.6,0,0,6,�쓌,3.9,52,,
2019/6/6,21:00:00,6,�쓌,1.3,8.9,95.4,0,0,6,�쓌,3.5,20,,
2019/6/6,22:00:00,7,��쓌,0.7,8.8,96,0,0,6,�쓌,2.7,41,,
2019/6/6,23:00:00,9,��쐼,0.5,8.8,96.1,0,0,10,�쐼,2.6,59,,
2019/6/6,0:00:00,12,��,0.3,8.7,96.4,0,0,9,��쐼,2.4,1,,
2019/6/7,1:00:00,7,��쓌,0.5,8.8,96.5,0,0,6,�쓌,1.9,36,,
2019/6/7,2:00:00,9,��쐼,0.8,8.8,96.6,0,0,10,�쐼,2.2,33,,
2019/6/7,3:00:00,10,�쐼,1.3,8.7,96.7,0,0,11,���쐼,2.1,56,,
2019/6/7,4:00:00,16,�É�,0.1,8.8,96.7,0,0,13,���k��,2.5,23,,
2019/6/7,5:00:00,2,�k��,0.6,9.2,96.8,0,0.02,11,���쐼,1.7,38,,
2019/6/7,6:00:00,8,��,0.5,9.4,96.6,0,0.05,9,��쐼,2.4,50,,
2019/6/7,7:00:00,7,��쓌,1.6,9.5,94.2,0.5,0.09,6,�쓌,2.9,40,,
2019/6/7,8:00:00,9.7,��쐼,93.3,0,0.14,,,,,,,,
2019/6/7,9:00:00,6,�쓌,1.2,9.8,88.1,0,0.19,6,�쓌,2.4,49,,
2019/6/7,10:00:00,6,�쓌,1.8,10.4,84.1,0,0.22,6,�쓌,2.7,52,,
2019/6/7,11:00:00,7,��쓌,2.5,10.5,83.7,0,0.33,6,�쓌,3.9,34,,
2019/6/7,12:00:00,7,��쓌,1.3,12,77.5,0,0.54,7,��쓌,3.6,24,,
2019/6/7,13:00:00,5,���쓌,2.5,13,73.7,0,0.73,6,�쓌,4.1,43,,
2019/6/7,14:00:00,5,���쓌,2.7,12.7,73,0,0.87,5,���쓌,4.4,51,,
2019/6/7,15:00:00,6,�쓌,3,11,80.8,0,0.43,6,�쓌,5.9,59,,
2019/6/7,16:00:00,6,�쓌,2,10.6,83.6,0,0.22,6,�쓌,5.1,5,,
2019/6/7,17:00:00,7,��쓌,1.3,11,82.4,0,0.14,5,���쓌,4.7,7,,
2019/6/7,18:00:00,5,���쓌,1.4,10.7,84,0,0.06,6,�쓌,3.3,11,,
2019/6/7,19:00:00,4,��,1.2,10.4,85.8,0,0.02,4,��,3.1,10,,
2019/6/7,20:00:00,2,�k��,0.4,10.3,87.6,0,0,3,���k��,1.5,0,,
2019/6/7,21:00:00,1,�k�k��,0.3,10.3,89.8,0,0,1,�k�k��,1,9,,
2019/6/7,22:00:00,10.3,�쐼,90,0,0,,,,,,,,
2019/6/7,23:00:00,16,�É�,0.2,10.2,90.7,0,0,2,�k��,1.7,48,,
2019/6/7,0:00:00,15,�k�k��,1.6,10,90.6,0,0,15,�k�k��,9.7,3,,
2019/6/8,1:00:00,16,�k,1.4,10.4,92.6,0,0,1,�k�k��,3.2,51,,
2019/6/8,2:00:00,16,�k,0.6,10.4,92.9,0,0,11,���쐼,2.5,5,,
2019/6/8,3:00:00,14,�k��,1.1,10.3,92.6,0,0,15,�k�k��,1.9,16,,
2019/6/8,4:00:00,10.4,�쐼,92.6,0,0,,,,,,,,
2019/6/8,5:00:00,15,�k�k��,1,10.6,92.9,0,0.01,14,�k��,2.8,38,,
2019/6/8,6:00:00,14,�k��,1.1,10.7,93,0,0.03,14,�k��,2.9,30,,
2019/6/8,7:00:00,16,�k,1.3,11.2,94.4,0,0.06,1,�k�k��,2.5,57,,
2019/6/8,8:00:00,15,�k�k��,1.2,12,92.5,0,0.1,1,�k�k��,2.9,20,,
2019/6/8,9:00:00,1,�k�k��,1.4,12.5,88.7,0,0.14,16,�k,3.4,44,,
2019/6/8,10:00:00,1,�k�k��,1.8,13,86.8,0,0.16,1,�k�k��,3.5,23,,
2019/6/8,11:00:00,3,���k��,3.4,13.2,86.3,0,0.13,3,���k��,5.2,56,,
2019/6/8,12:00:00,2,�k��,2.9,13.6,87.8,0,0.16,4,��,5.7,9,,
2019/6/8,13:00:00,2,�k��,3.1,15.1,78.3,0,0.44,2,�k��,5.5,38,,
2019/6/8,14:00:00,2,�k��,2.9,15.8,67.9,0,0.49,3,���k��,5.3,53,,
2019/6/8,15:00:00,3,���k��,2.8,16.4,64.3,0,0.58,3,���k��,6,26,,
2019/6/8,16:00:00,3,���k��,1.2,15.1,70.2,0,0.3,3,���k��,5,10,,
2019/6/8,17:00:00,3,���k��,2.2,14.2,77.2,0,0.14,3,���k��,3.9,59,,
2019/6/8,18:00:00,3,���k��,1.6,13.1,83,0,0.07,3,���k��,3.8,2,,
2019/6/8,19:00:00,3,���k��,1.5,11.8,85,0,0.03,2,�k��,2.9,30,,
2019/6/8,20:00:00,1,�k�k��,0.5,10.3,88.8,0,0,3,���k��,1.8,0,,
2019/6/8,21:00:00,16,�É�,0.2,11.3,90.8,0,0,1,�k�k��,1.9,32,,
2019/6/8,22:00:00,16,�É�,0.1,11.4,92,0,0,12,��,1.5,33,,
2019/6/8,23:00:00,12,��,0.7,10.4,90.8,0,0,13,���k��,2.7,43,,
2019/6/8,0:00:00,16,�É�,0.2,10.4,91.6,0,0,14,�k��,1.6,48,,
2019/6/9,1:00:00,15,�k�k��,0.3,8.9,91.1,0,0,5,���쓌,2.1,48,,
2019/6/9,2:00:00,10,�쐼,0.3,9.2,92.1,0,0,13,���k��,3.8,8,,
2019/6/9,3:00:00,13,���k��,0.8,7.9,92.1,0,0,12,��,7.2,22,,
2019/6/9,4:00:00,8.7,��,93.5,0,0,,,,,,,,
2019/6/9,5:00:00,13,���k��,0.5,10.1,94.7,0,0.03,12,��,2.1,1,,
2019/6/9,6:00:00,11.8,���쐼,95.8,0,0.11,,,,,,,,
2019/6/9,7:00:00,8,��,0.3,13.5,80.8,0,0.25,10,�쐼,7.4,50,,
2019/6/9,8:00:00,6,�쓌,1.8,15.4,54,0,0.55,4,��,4.3,58,,
2019/6/9,9:00:00,5,���쓌,3.5,15.2,61.3,0,0.82,5,���쓌,4.7,59,,
2019/6/9,10:00:00,5,���쓌,3.6,15.4,61.1,0,0.96,5,���쓌,5.4,0,,
2019/6/9,11:00:00,6,�쓌,3.3,15.5,64.7,0,1.08,5,���쓌,6.1,35,,
2019/6/9,12:00:00,7,��쓌,3.4,15.2,63.2,0,1.04,8,��,5.6,51,,
2019/6/9,13:00:00,6,�쓌,4.2,14.2,66.9,0,1.03,5,���쓌,7.2,42,,
2019/6/9,14:00:00,6,�쓌,3.6,14.4,67.7,0,0.94,6,�쓌,7.4,35,,
2019/6/9,15:00:00,7,��쓌,2.9,13.9,69.3,0,0.78,6,�쓌,6.7,36,,
2019/6/9,16:00:00,7,��쓌,2.6,12.4,69.6,0,0.55,8,��,5.9,8,,
2019/6/9,17:00:00,6,�쓌,2.6,11.8,78.7,0,0.21,6,�쓌,4.2,44,,
2019/6/9,18:00:00,6,�쓌,2,11,84.9,0,0.1,6,�쓌,3.6,18,,
2019/6/9,19:00:00,6,�쓌,0.9,10.6,88.5,0,0.02,6,�쓌,3.4,1,,
2019/6/9,20:00:00,5,���쓌,1.2,10.6,90.1,0,0,5,���쓌,2.1,38,,
2019/6/9,21:00:00,2,�k��,1.5,10.3,90.8,0,0,2,�k��,2.2,58,,
2019/6/9,22:00:00,3,���k��,1.4,10.4,91.6,0,0,2,�k��,2.2,56,,
2019/6/9,23:00:00,5,���쓌,1.4,10.6,91.3,0,0,5,���쓌,2.4,53,,
2019/6/9,0:00:00,5,���쓌,2.1,10.6,91.5,0,0,5,���쓌,3.4,53,,
2019/6/10,1:00:00,5,���쓌,1.2,10.5,92.5,0,0,6,�쓌,3.4,0,,
2019/6/10,2:00:00,6,�쓌,1.2,10.4,91.8,0,0,6,�쓌,2.9,36,,
2019/6/10,3:00:00,6,�쓌,1.3,10.5,91.8,0,0,6,�쓌,2.8,55,,
2019/6/10,4:00:00,8,��,1.2,10.4,90.9,0,0,10,�쐼,7.4,58,,
2019/6/10,5:00:00,7,��쓌,1.2,10.6,90.1,0,0.02,8,��,2.5,54,,
2019/6/10,6:00:00,7,��쓌,1.1,11.1,88.1,0,0.07,8,��,2.3,47,,
2019/6/10,7:00:00,4,��,1.8,11.8,82.7,0,0.16,5,���쓌,2.7,53,,
2019/6/10,8:00:00,6,�쓌,2,11.9,80.9,0,0.22,6,�쓌,3.2,55,,
2019/6/10,9:00:00,6,�쓌,1.7,12.7,71.6,0,0.45,7,��쓌,3.1,40,,
2019/6/10,10:00:00,5,���쓌,1.9,14.7,63.3,0,0.83,6,�쓌,4,48,,
2019/6/10,11:00:00,6,�쓌,3,14.1,65.6,0,0.78,7,��쓌,5.2,32,,
2019/6/10,12:00:00,6,�쓌,3.2,13.3,64,0,0.78,6,�쓌,5.9,47,,
2019/6/10,13:00:00,5,���쓌,3.5,13,75.4,0,0.48,6,�쓌,4.9,37,,
2019/6/10,14:00:00,5,���쓌,3.1,12.8,76.2,0,0.37,5,���쓌,4.9,2,,
2019/6/10,15:00:00,5,���쓌,2.2,13,79,0,0.25,5,���쓌,4.3,10,,
2019/6/10,16:00:00,6,�쓌,2.4,13.6,74.4,0,0.4,6,�쓌,4.4,56,,
2019/6/10,17:00:00,4,��,3,12.2,79.9,0,0.25,5,���쓌,4.6,50,,
2019/6/10,18:00:00,4,��,2.5,11.7,84.8,0,0.08,3,���k��,4.5,17,,
2019/6/10,19:00:00,4,��,1.6,11.3,88.1,0,0.02,3,���k��,4,19,,
2019/6/10,20:00:00,5,���쓌,1.3,11.2,89.1,0,0,4,��,2.5,0,,
2019/6/10,21:00:00,5,���쓌,1.3,11.2,90.3,0,0,5,���쓌,2,48,,
2019/6/10,22:00:00,3,���k��,0.9,11.1,91.2,0,0,3,���k��,1.8,48,,
2019/6/10,23:00:00,2,�k��,0.4,10.9,91.5,0,0,2,�k��,1.8,23,,
2019/6/10,0:00:00,2,�k��,1.4,10.1,91.6,0,0,2,�k��,2,0,,
2019/6/11,1:00:00,16,�k,0.7,9,91.7,0,0,1,�k�k��,2,45,,
2019/6/11,2:00:00,13,���k��,0.9,6,87.4,0,0,14,�k��,1.4,55,,
2019/6/11,3:00:00,15,�k�k��,1.2,9.1,94,0,0,15,�k�k��,2.5,48,,
2019/6/11,4:00:00,11,���쐼,0.9,6.2,93.3,0,0,1,�k�k��,7.4,33,,
2019/6/11,5:00:00,11,���쐼,0.4,8.7,95.4,0,0.08,10,�쐼,1.8,24,,
2019/6/11,6:00:00,2,�k��,0.9,10.7,95.9,0,0.13,3,���k��,1.8,57,,
2019/6/11,7:00:00,11.8,���쐼,83.2,0,0.2,,,,,,,,
2019/6/11,8:00:00,6,�쓌,2.1,13,74.8,0,0.45,7,��쓌,4.2,36,,
2019/6/11,9:00:00,4,��,2,15.9,60,0,0.74,6,�쓌,4.2,3,,
2019/6/11,10:00:00,5,���쓌,2.6,16.4,57.3,0,1.01,6,�쓌,5.1,59,,
2019/6/11,11:00:00,5,���쓌,2.9,14.4,69.9,0,0.68,5,���쓌,5.4,5,,
2019/6/11,12:00:00,6,�쓌,2.7,15.2,66.2,0,0.88,4,��,5,35,,
2019/6/11,13:00:00,6,�쓌,2.8,15,69,0,0.81,6,�쓌,5.7,38,,
2019/6/11,14:00:00,5,���쓌,2.3,14.4,70,0,0.63,7,��쓌,5.2,10,,
2019/6/11,15:00:00,6,�쓌,2.3,14.3,68.4,0,0.52,6,�쓌,4.4,7,,
2019/6/11,16:00:00,6,�쓌,2.1,14.1,66.8,0,0.4,6,�쓌,3.6,8,,
2019/6/11,17:00:00,5,���쓌,2,13.2,77,0,0.25,5,���쓌,3.2,27,,
2019/6/11,18:00:00,5,���쓌,1.6,12.4,79,0,0.13,5,���쓌,3.1,16,,
2019/6/11,19:00:00,16,�É�,0.1,10.6,83.4,0,0.03,5,���쓌,2.1,6,,
2019/6/11,20:00:00,3,���k��,2,10.4,87,0,0,3,���k��,2.7,59,,
2019/6/11,21:00:00,12,��,1,7.6,86.7,0,0,3,���k��,2.5,0,,
2019/6/11,22:00:00,14,�k��,0.6,8.1,89.8,0,0,14,�k��,2,0,,
2019/6/11,23:00:00,13,���k��,1.2,7,92,0,0,14,�k��,2.5,29,,
2019/6/11,0:00:00,14,�k��,1.7,8,93.6,0,0,14,�k��,2.5,58,,
2019/6/12,1:00:00,14,�k��,1.2,8.5,95.6,0,0,14,�k��,2.6,8,,
2019/6/12,2:00:00,14,�k��,1.8,7.7,95.8,0,0,14,�k��,2.5,59,,
2019/6/12,3:00:00,13,���k��,1.6,7.7,96.1,0,0,14,�k��,2.5,12,,
2019/6/12,4:00:00,13,���k��,1.8,8.1,96.2,0,0,14,�k��,2.6,54,,
2019/6/12,5:00:00,14,�k��,2.2,8.7,96.2,0,0.05,14,�k��,2.9,57,,
2019/6/12,6:00:00,14,�k��,1.3,11.3,94.5,0,0.17,14,�k��,3,28,,
2019/6/12,7:00:00,2,�k��,2.1,13.2,70.3,0,0.37,2,�k��,4,44,,
2019/6/12,8:00:00,3,���k��,2.7,14.5,71.4,0,0.44,5,���쓌,5,48,,
2019/6/12,9:00:00,4,��,4.4,14.1,64.5,0,0.63,5,���쓌,6.4,44,,
2019/6/12,10:00:00,3,���k��,3.9,15.4,67.9,0,0.4,3,���k��,6.1,11,,
2019/6/12,11:00:00,3,���k��,3.5,15.7,72.1,0,0.57,4,��,7.4,3,,
2019/6/12,12:00:00,4,��,4.3,17.2,57.2,0,1.04,4,��,7.2,40,,
2019/6/12,13:00:00,5,���쓌,4.5,16.4,61.8,0,0.85,5,���쓌,6.7,57,,
2019/6/12,14:00:00,4,��,4.4,16.2,60.6,0,0.83,5,���쓌,6.9,55,,
2019/6/12,15:00:00,5,���쓌,4.7,13.6,73.1,0,0.55,4,��,7.4,33,,
2019/6/12,16:00:00,4,��,2.1,12.9,75.6,0,0.22,4,��,7.1,13,,
2019/6/12,17:00:00,5,���쓌,0.7,12.1,75.1,0,0.09,4,��,3.5,22,,
2019/6/12,18:00:00,2,�k��,1.6,11.8,74.8,0,0.04,4,��,2.9,42,,
2019/6/12,19:00:00,5,���쓌,1.6,11.4,75,0,0.01,5,���쓌,2.6,57,,
2019/6/12,20:00:00,5,���쓌,0.9,11.2,77.9,0,0,4,��,2.9,23,,
2019/6/12,21:00:00,5,���쓌,1.1,11.1,81.5,0,0,5,���쓌,2.3,42,,
2019/6/12,22:00:00,5,���쓌,1.3,10.7,83.3,0,0,5,���쓌,2.4,24,,
2019/6/12,23:00:00,6,�쓌,0.7,10.5,85.9,0,0,5,���쓌,2.4,13,,
2019/6/12,0:00:00,5,���쓌,1.2,10.3,86.5,0,0,5,���쓌,2.3,23,,
2019/6/13,1:00:00,4,��,0.6,10.2,86.2,0,0,5,���쓌,2.5,14,,
2019/6/13,2:00:00,5,���쓌,0.7,10.1,86.4,0,0,4,��,1.7,3,,
2019/6/13,3:00:00,1,�k�k��,0.4,9.9,86.8,0,0,3,���k��,1.3,25,,
2019/6/13,4:00:00,16,�É�,0.1,9.7,89.5,0,0,16,�k,6.7,3,,
2019/6/13,5:00:00,5,���쓌,0.5,10.3,89.6,0,0.03,8,��,17.4,27,,
2019/6/13,6:00:00,5,���쓌,1.5,11.2,80.9,0,0.09,6,�쓌,2.5,28,,
2019/6/13,7:00:00,5,���쓌,1.5,11.6,70.8,0,0.21,5,���쓌,2.9,22,,
2019/6/13,8:00:00,5,���쓌,2.3,13,64.9,0,0.5,5,���쓌,3.9,53,,
2019/6/13,9:00:00,5,���쓌,2.6,13.2,60.3,0,0.76,5,���쓌,5.2,35,,
2019/6/13,10:00:00,5,���쓌,3.5,13.1,62.6,0,0.95,5,���쓌,5.9,46,,
2019/6/13,11:00:00,5,���쓌,4.1,14.2,68.3,0,1.05,5,���쓌,7.3,57,,
2019/6/13,12:00:00,6,�쓌,4,13.2,65.3,0,1.09,8,��,6.6,50,,
2019/6/13,13:00:00,6,�쓌,4.4,13.4,64,0,0.89,5,���쓌,6.9,50,,
2019/6/13,14:00:00,7,��쓌,3.7,13.7,67.6,0,0.89,6,�쓌,6.9,1,,
2019/6/13,15:00:00,6,�쓌,3.1,13.1,71.6,0,0.58,6,�쓌,6.7,47,,
2019/6/13,16:00:00,7,��쓌,3.2,12.3,72,0,0.41,6,�쓌,6.3,20,,
2019/6/13,17:00:00,7,��쓌,3.8,11.3,77.4,0,0.23,6,�쓌,6.5,1,,
2019/6/13,18:00:00,7,��쓌,3.1,10.8,82,0,0.1,8,��,6.1,24,,
2019/6/13,19:00:00,6,�쓌,2.4,10.7,85.6,0,0.02,7,��쓌,5.6,12,,
2019/6/13,20:00:00,6,�쓌,2.5,11,87.4,0,0,6,�쓌,4.8,29,,
2019/6/13,21:00:00,6,�쓌,1.6,11.1,88.1,0,0,7,��쓌,5.7,25,,
2019/6/13,22:00:00,7,��쓌,1.9,11.1,89,0,0,7,��쓌,3.9,53,,
2019/6/13,23:00:00,5,���쓌,1.4,10.8,90.8,0,0,5,���쓌,3.8,19,,
2019/6/13,0:00:00,1,�k�k��,1.4,11.2,92.1,0,0,5,���쓌,4.1,28,,
2019/6/14,1:00:00,14,�k��,1.1,10.9,91.5,0,0,14,�k��,2.3,5,,
2019/6/14,2:00:00,13,���k��,1.4,10.7,91.8,0,0,13,���k��,2.2,57,,
2019/6/14,3:00:00,13,���k��,1,10.7,93.4,0,0,13,���k��,2,19,,
2019/6/14,4:00:00,13,���k��,0.5,10.8,94.1,0,0,12,��,2.3,33,,
2019/6/14,5:00:00,16,�k,0.9,11.1,93.8,0,0.02,13,���k��,6.8,11,,
2019/6/14,6:00:00,1,�k�k��,1.1,11.5,90.4,0,0.09,1,�k�k��,2.1,53,,
2019/6/14,7:00:00,2,�k��,0.9,12.2,84,0,0.16,1,�k�k��,2.5,9,,
2019/6/14,8:00:00,8,��,1.9,14,75.4,0,0.34,8,��,3.6,52,,
2019/6/14,9:00:00,6,�쓌,1.8,14.7,69.1,0,0.6,6,�쓌,4.3,45,,
2019/6/14,10:00:00,4,��,2.6,14.4,75.4,0,0.41,5,���쓌,4.2,58,,
2019/6/14,11:00:00,8,��,3.9,16.8,76.4,0,0.58,8,��,8.1,57,,
2019/6/14,12:00:00,8,��,5.8,17.8,71.8,0,1.07,7,��쓌,10.9,59,,
2019/6/14,13:00:00,8,��,4.9,19.3,70.1,0,1.04,8,��,11.8,16,,
2019/6/14,14:00:00,8,��,6.9,17.4,74.1,0,0.92,8,��,12.2,49,,
2019/6/14,15:00:00,8,��,5.9,18.2,75.5,0,0.78,9,��쐼,12.9,19,,
2019/6/14,16:00:00,8,��,6.1,17.2,76.4,0,0.63,9,��쐼,13.5,50,,
2019/6/14,17:00:00,8,��,6.3,15,85.3,0,0.32,9,��쐼,12.6,25,,
2019/6/14,18:00:00,9,��쐼,6.1,14.1,91.9,0,0.12,8,��,11.6,35,,
2019/6/14,19:00:00,8,��,4.2,13.8,94.5,0,0.03,8,��,12.6,0,,
2019/6/14,20:00:00,8,��,4.2,13.3,95.5,0,0,8,��,8.6,37,,
2019/6/14,21:00:00,9,��쐼,2.9,13.2,96.1,0,0,8,��,7.4,59,,
2019/6/14,22:00:00,11,���쐼,2.5,13,96.3,0,0,8,��,6.5,3,,
2019/6/14,23:00:00,11,���쐼,0.7,13.2,96.7,0,0,11,���쐼,2.7,0,,
2019/6/14,0:00:00,13,���k��,0.6,13.6,96.9,0,0,10,�쐼,2.8,34,,
2019/6/15,1:00:00,9,��쐼,1.7,13.9,97,0,0,9,��쐼,4.3,22,,
2019/6/15,2:00:00,9,��쐼,3.4,14.1,96.9,0,0,9,��쐼,7,32,,
2019/6/15,3:00:00,9,��쐼,2.9,14.1,96.9,0,0,9,��쐼,7,45,,
2019/6/15,4:00:00,9,��쐼,2.8,13.6,96.7,0,0,9,��쐼,7.8,43,,
2019/6/15,5:00:00,8,��,3.1,13.7,96.9,0,0.01,8,��,7.8,44,,
2019/6/15,6:00:00,8,��,2.7,14,97.1,0,0.04,8,��,5.4,43,,
2019/6/15,7:00:00,8,��,2.1,14.1,96.6,0,0.06,7,��쓌,5.1,4,,
2019/6/15,8:00:00,8,��,2.9,14.5,92.5,0,0.14,7,��쓌,8.1,47,,
2019/6/15,9:00:00,7,��쓌,3,14.9,87,0,0.26,7,��쓌,7.9,34,,
2019/6/15,10:00:00,7,��쓌,5.5,17,80,0,0.57,8,��,10.9,35,,
2019/6/15,11:00:00,7,��쓌,4,16,79.1,0,0.6,7,��쓌,9.2,45,,
2019/6/15,12:00:00,7,��쓌,5,15.8,83.8,0,0.41,7,��쓌,9.7,45,,
2019/6/15,13:00:00,7,��쓌,4.1,15.1,83.1,0,0.47,7,��쓌,9.3,10,,
2019/6/15,14:00:00,7,��쓌,3.6,14.7,81.7,0,0.43,7,��쓌,8.2,30,,
2019/6/15,15:00:00,7,��쓌,3.5,14.4,83.4,0,0.3,7,��쓌,8.6,5,,
2019/6/15,16:00:00,7,��쓌,2,13.4,87.1,0,0.12,7,��쓌,6.5,4,,
2019/6/15,17:00:00,5,���쓌,1.5,13.3,90.4,0,0.06,6,�쓌,3.5,12,,
2019/6/15,18:00:00,2,�k��,1.6,12.8,91.3,0,0.03,2,�k��,2.5,48,,
2019/6/15,19:00:00,3,���k��,3.4,12.2,92.9,0,0.01,3,���k��,4.9,44,,
2019/6/15,20:00:00,3,���k��,3.1,12.3,95.1,0,0,2,�k��,5.6,2,,
2019/6/15,21:00:00,2,�k��,3,11.9,95.5,0,0,3,���k��,6,4,,
2019/6/15,22:00:00,3,���k��,4.2,11.8,96.3,0,0,2,�k��,6.6,42,,
2019/6/15,23:00:00,3,���k��,4.2,11.8,96.8,2.5,0,3,���k��,7.4,20,,
2019/6/15,0:00:00,3,���k��,4,11.6,97.1,2.5,0,3,���k��,7.4,17,,
2019/6/16,1:00:00,2,�k��,4,11.6,97.3,3.5,0,3,���k��,7.6,6,,
2019/6/16,2:00:00,3,���k��,5,11.6,97.6,2.5,0,2,�k��,7.7,54,,
2019/6/16,3:00:00,3,���k��,5.2,11.6,97.7,1,0,3,���k��,8.6,49,,
2019/6/16,4:00:00,2,�k��,4.7,11.6,97.7,7,0,3,���k��,8.7,17,,
2019/6/16,5:00:00,2,�k��,5.6,11.9,97.8,7,0.01,3,���k��,9,56,,
2019/6/16,6:00:00,2,�k��,6.2,12,97.8,4,0.02,3,���k��,11.3,30,,
2019/6/16,7:00:00,2,�k��,5.8,13.1,97.9,9.5,0.02,2,�k��,12.7,2,,
2019/6/16,8:00:00,2,�k��,7.1,13.4,97.4,5,0.08,3,���k��,14.1,57,,
2019/6/16,9:00:00,2,�k��,6.9,14,96.9,0.5,0.17,2,�k��,15.4,10,,
2019/6/16,10:00:00,16,�k,4.2,14.8,95.5,0.5,0.22,2,�k��,10.2,1,,
2019/6/16,11:00:00,1,�k�k��,3.1,15.9,92.4,1.5,0.35,2,�k��,9.6,2,,
2019/6/16,12:00:00,1,�k�k��,4.1,16.3,88.9,0.5,0.51,1,�k�k��,8.6,45,,
2019/6/16,13:00:00,2,�k��,3.8,14.6,84.9,0,0.36,16,�k,8.9,28,,
2019/6/16,14:00:00,1,�k�k��,3.5,14.3,93.1,4.5,0.05,1,�k�k��,7.8,11,,
2019/6/16,15:00:00,15,�k�k��,1.7,14.6,93.8,3.5,0.1,15,�k�k��,5.5,18,,
2019/6/16,16:00:00,15,�k�k��,2.8,13.8,92.6,3.5,0.04,15,�k�k��,7.1,50,,
2019/6/16,17:00:00,15,�k�k��,3,13.3,93.3,5,0.04,14,�k��,8,41,,
2019/6/16,18:00:00,15,�k�k��,3,12.6,92.8,0.5,0.04,13,���k��,7.4,19,,
2019/6/16,19:00:00,15,�k�k��,3.7,11.5,92,0.5,0.01,16,�k,8.2,54,,
2019/6/16,20:00:00,15,�k�k��,3.4,11.3,91.9,0.5,0,15,�k�k��,8.1,52,,
2019/6/16,21:00:00,16,�k,3.7,11,91.2,0,0,16,�k,12.1,40,,
2019/6/16,22:00:00,14,�k��,1.9,10.6,92.7,0.5,0,16,�k,7.1,2,,
2019/6/16,23:00:00,14,�k��,2.3,10.7,94.1,0,0,14,�k��,4,59,,
2019/6/16,0:00:00,14,�k��,0.6,10.6,94.5,0,0,14,�k��,3.5,54,,
2019/6/17,1:00:00,15,�k�k��,0.5,10.6,94.6,0.5,0,1,�k�k��,2,26,,
2019/6/17,2:00:00,11,���쐼,1.1,10.7,95,0,0,1,�k�k��,3.3,21,,
2019/6/17,3:00:00,15,�k�k��,0.9,10.9,95.4,0,0,15,�k�k��,3,49,,
2019/6/17,4:00:00,8,��,1,10.8,95.3,0,0,15,�k�k��,2.1,1,,
2019/6/17,5:00:00,15,�k�k��,1.4,10.8,95.1,0,0.01,10,�쐼,7.8,39,,
2019/6/17,6:00:00,16,�k,2,11.4,87.2,0,0.08,16,�k,4.5,53,,
2019/6/17,7:00:00,16,�k,1.9,13.7,68.7,0,0.32,14,�k��,4.4,42,,
2019/6/17,8:00:00,2,�k��,2.4,15.2,59.4,0,0.51,9,��쐼,5.8,27,,
2019/6/17,9:00:00,14,�k��,2.9,15.8,60,0,0.5,16,�k,5.9,39,,
2019/6/17,10:00:00,8,��,3.9,16.5,61.6,0,0.77,8,��,6.6,59,,
2019/6/17,11:00:00,9,��쐼,3.7,14,70.6,0,0.54,9,��쐼,7.4,9,,